DW7955 Weather Reports


time (UTC)temp
C
wind
direction
speed
KPH
gust
KPH
rain 1hr
cm
rain 24hr
cm
rain mn
cm
humidity
%
barometer
mb
20260906213028 31 88 11.3 20.9 0.00 0.00 0.00 34 1001.5
20260906211525 31 124 6.4 19.3 0.00 0.00 0.00 36 1001.8
20260906210023 30 74 6.4 20.9 0.00 0.00 0.00 36 1001.9
20260906204522 30 152 9.7 22.5 0.00 0.00 0.00 36 1001.9
20260906203027 30 125 8.0 16.1 0.00 0.00 0.00 38 1002.2
20260906201518 30 85 4.8 19.3 0.00 0.00 0.00 37 1002.3
20260906200017 30 40 8.0 14.5 0.00 0.00 0.00 38 1002.2
20260906194515 30 116 11.3 20.9 0.00 0.00 0.00 39 1002.4
20260906193011 30 76 12.9 20.9 0.00 0.00 0.00 41 1002.7
20260906191510 29 57 12.9 22.5 0.00 0.00 0.00 39 1003.1
20260906190006 29 138 6.4 14.5 0.00 0.00 0.00 41 1003.3
20260906184505 29 138 4.8 16.1 0.00 0.00 0.00 42 1003.6
20260906183105 29 188 4.8 12.9 0.00 0.00 0.00 42 1003.9
20260906181503 28 82 1.6 14.5 0.00 0.00 0.00 42 1004.2
20260906180001 27 1 3.2 11.3 0.00 0.00 0.00 44 1004.4
20260906174500 28 18 1.6 14.5 0.00 0.00 0.00 44 1004.6
20260906173104 27 342 4.8 9.7 0.00 0.00 0.00 44 1004.8
20260906171602 27 29 3.2 9.7 0.00 0.00 0.00 46 1005.1
20260906170057 26 57 4.8 8.0 0.00 0.00 0.00 46 1005.1
20260906164554 26 1 4.8 14.5 0.00 0.00 0.00 46 1005.3
20260906163109 26 20 3.2 11.3 0.00 0.00 0.00 47 1005.5
20260906161549 25 305 4.8 12.9 0.00 0.00 0.00 52 1005.6
20260906160047 24 86 6.4 14.5 0.00 0.00 0.00 52 1005.7
20260906154543 25 5 6.4 9.7 0.00 0.00 0.00 53 1005.6
20260906153047 23 329 0.0 9.7 0.00 0.00 0.00 56 1005.6
20260906151540 23 59 6.4 12.9 0.00 0.00 0.00 57 1005.9
20260906150042 22 65 6.4 12.9 0.00 0.00 0.00 58 1006.0
20260906144538 22 42 6.4 14.5 0.00 0.00 0.00 58 1005.9
20260906143045 21 59 6.4 11.3 0.00 0.00 0.00 59 1005.9
20260906141535 20 178 1.6 4.8 0.00 0.00 0.00 59 1006.1
20260906140033 19 191 3.2 4.8 0.00 0.00 0.00 62 1006.2
20260906134536 19 191 0.0 1.6 0.00 0.00 0.00 63 1006.1
20260906133029 18 191 0.0 3.2 0.00 0.00 0.00 65 1006.0
20260906131527 18 346 0.0 0.0 0.00 0.00 0.00 67 1005.8
20260906130027 18 346 0.0 0.0 0.00 0.00 0.00 67 1005.4
20260906124524 18 346 0.0 3.2 0.00 0.00 0.00 67 1005.4
20260906123022 18 343 3.2 8.0 0.00 0.00 0.00 68 1005.1
20260906121523 18 351 0.0 9.7 0.00 0.00 0.00 68 1005.0
20260906120019 18 344 0.0 3.2 0.00 0.00 0.00 68 1004.8
20260906114516 18 344 1.6 6.4 0.00 0.00 0.00 66 1004.7
20260906113014 20 344 0.0 0.0 0.00 0.00 0.00 64 1004.6
20260906111513 20 323 1.6 6.4 0.00 0.00 0.00 64 1004.6
20260906110013 20 309 3.2 11.3 0.00 0.00 0.00 64 1004.7
20260906104512 20 347 3.2 11.3 0.00 0.00 0.00 64 1004.7
20260906103011 20 319 4.8 9.7 0.00 0.00 0.00 65 1004.6
20260906101511 19 334 4.8 9.7 0.00 0.00 0.00 65 1004.9
20260906100010 19 317 4.8 9.7 0.00 0.00 0.00 66 1004.8
20260906094510 19 295 6.4 9.7 0.00 0.00 0.00 65 1004.8
20260906093012 19 340 6.4 11.3 0.00 0.00 0.00 65 1004.6
20260906091506 19 302 3.2 11.3 0.00 0.00 0.00 64 1004.5
20260906090004 20 351 4.8 9.7 0.00 0.00 0.00 63 1004.4
20260906084503 20 19 6.4 12.9 0.00 0.00 0.00 63 1004.4
20260906083101 20 16 8.0 16.1 0.00 0.00 0.00 62 1004.4
20260906081557 20 23 12.9 19.3 0.00 0.00 0.00 60 1004.5
20260906080059 21 31 9.7 17.7 0.00 0.00 0.00 59 1004.3
20260906074558 21 32 9.7 17.7 0.00 0.00 0.00 58 1003.9
20260906073050 21 30 9.7 17.7 0.00 0.00 0.00 57 1003.6
20260906071549 21 31 12.9 19.3 0.00 0.00 0.00 56 1003.5
20260906070046 21 43 11.3 17.7 0.00 0.00 0.00 54 1003.5
20260906064544 21 28 8.0 14.5 0.00 0.00 0.00 51 1003.4
20260906063040 22 45 9.7 16.1 0.00 0.00 0.00 49 1003.3
20260906061540 23 25 8.0 12.9 0.00 0.00 0.00 46 1003.6
20260906060036 24 30 0.0 4.8 0.00 0.00 0.00 45 1003.6
20260906054531 25 116 3.2 8.0 0.00 0.00 0.00 44 1003.8
20260906053031 25 129 3.2 11.3 0.00 0.00 0.00 43 1003.9
20260906051530 26 146 6.4 16.1 0.00 0.00 0.00 41 1004.0
20260906050030 26 124 12.9 24.1 0.00 0.00 0.00 38 1004.0
20260906044533 26 78 8.0 16.1 0.00 0.00 0.00 38 1004.0
20260906043028 26 103 1.6 4.8 0.00 0.00 0.00 36 1003.7
20260906041538 26 151 1.6 6.4 0.00 0.00 0.00 35 1003.7
20260906040026 26 97 1.6 9.7 0.00 0.00 0.00 35 1003.7
20260906034530 26 132 3.2 16.1 0.00 0.00 0.00 35 1003.7
20260906033028 26 89 4.8 16.1 0.00 0.00 0.00 36 1003.7
20260906031524 25 33 1.6 6.4 0.00 0.00 0.00 37 1003.2
20260906030024 26 32 0.0 3.2 0.00 0.00 0.00 37 1002.8
20260906024523 27 155 0.0 0.0 0.00 0.00 0.00 36 1002.4
20260906023022 28 155 0.0 0.0 0.00 0.00 0.00 34 1002.2
20260906021523 28 155 0.0 6.4 0.00 0.00 0.00 32 1002.0
20260906020022 28 159 3.2 8.0 0.00 0.00 0.00 31 1001.9
20260906014525 28 132 1.6 4.8 0.00 0.00 0.00 30 1001.6
20260906013021 29 151 1.6 4.8 0.00 0.00 0.00 29 1001.4
20260906011521 31 151 0.0 3.2 0.00 0.00 0.00 26 1001.4
20260906010020 31 173 1.6 6.4 0.00 0.00 0.00 24 1001.5
20260906004519 32 175 3.2 4.8 0.00 0.00 0.00 23 1001.5
20260906003020 32 143 3.2 8.0 0.00 0.00 0.00 23 1001.3
20260906001520 33 181 3.2 11.3 0.00 0.00 0.00 23 1001.3
20260906000019 32 212 4.8 12.9 0.00 0.00 0.00 23 1001.5
20260905234518 31 199 3.2 9.7 0.00 0.00 0.00 27 1001.7
20260905233017 31 205 11.3 17.7 0.00 0.00 0.00 27 1001.6
20260905231518 33 190 6.4 16.1 0.00 0.00 0.00 21 1001.5
20260905230017 33 139 1.6 11.3 0.00 0.00 0.00 21 1001.5
20260905224520 33 128 8.0 19.3 0.00 0.00 0.00 21 1001.4
20260905223016 33 135 4.8 11.3 0.00 0.00 0.00 21 1001.3
20260905221529 33 220 1.6 6.4 0.00 0.00 0.00 20 1001.4
20260905220014 33 159 3.2 11.3 0.00 0.00 0.00 20 1001.4
20260905214513 33 200 6.4 12.9 0.00 0.00 0.00 20 1001.5